ANIK F2

Last updated on Fri Jul 11 2025 00:02:42 GMT+0000 (Coordinated Universal Time)

1 28378U 04027A 25191.53966461 -.00000039 00000+0 00000+0 0 9990 2 28378 2.4040 83.9874 0005406 11.7049 276.2071 1.00271369 37831
UTC large
Height (km)
Speed (km/s)
/
Latitude / Longitude
Inclination (degrees)
Orbital Period (minutes)
Azimuth
Elevation
Range (km)
Doppler Factor

Next 0 passes for location: London (51.5072 / 0.1276)

Sorry there are no passes over London.